Weather History for MHRO - October, 2011

Change the Weather History Date:

Thursday, October 13, 2011

  Actual Average Record
Temperature  
Mean Temperature 82 °F -  
Max Temperature 88 °F 84 °F 91 °F (2003)
Min Temperature 77 °F 75 °F 72 °F (2013)
Cooling Degree Days 18    
Growing Degree Days 32 (Base 50)    
Moisture  
Dew Point 77 °F    
Average Humidity 75    
Maximum Humidity 89    
Minimum Humidity 62    
Precipitation  
Precipitation 0.00 in - - ()
Sea Level Pressure  
Sea Level Pressure 29.73 in    
Wind  
Wind Speed 4 mph ()    
Max Wind Speed 14 mph    
Max Gust Speed -    
Visibility 6.5 miles    
Events Rain , Thunderstorm    
Averages and records for this station are not official NWS values.
T = Trace of Precipitation, MM = Missing Value Source: Averaged Metar Reports

Daily Weather History Graph

Daily Weather History Graph

Search for Another Location

Airport or City:

Trip Planner

Search our weather history database for the weather conditions in past years. The results will help you decide how hot, cold, wet, or windy it might be!

Date:

Astronomy

Oct. 13, 2011 Rise Set
Actual Time 5:38 AM CST 5:26 PM CST
Civil Twilight 5:16 AM CST 5:48 PM CST
Nautical Twilight 4:51 AM CST 6:13 PM CST
Astronomical Twilight 4:26 AM CST 6:38 PM CST
Moon 6:27 PM CST (10/13) 6:46 AM CST (10/13)
Length of Visible Light 12h 31m
Length of Day
11h 48m
Full, 98% of the Moon is Illuminated
Oct 13
Full
Oct 19
Last Quarter
Oct 26
New
Nov 2
First Quarter
Nov 10
Full

Hourly Weather History & Observations

Time (CST) Temp. Heat Index Dew Point Humidity Pressure Visibility Wind Dir Wind Speed Gust Speed Precip Events Conditions
6:00 AM 78 °F - 75 °F 86% 29.73 in 9 mi Calm Calm - -   Haze
6:00 AM 78.8 °F - 75.2 °F 89% 29.71 in 6.2 mi Calm Calm - N/A   Mostly Cloudy
8:00 AM 86.0 °F 96.9 °F 77.0 °F 74% 29.77 in 6.2 mi NW 2.3 mph - N/A   Mostly Cloudy
9:00 AM 86 °F - 77 °F 69% 29.79 in 9 mi West 6.9 mph - -   Haze
9:00 AM 86.0 °F 96.9 °F 77.0 °F 74% 29.77 in 6.2 mi West 6.9 mph - N/A   Mostly Cloudy
10:00 AM 87.8 °F 99.7 °F 77.0 °F 70% 29.77 in 6.2 mi WNW 6.9 mph - N/A   Mostly Cloudy
11:00 AM 87.8 °F 102.5 °F 78.8 °F 75% 29.77 in 6.2 mi WNW 5.8 mph - N/A   Mostly Cloudy
12:00 PM 88 °F - 77 °F 62% 29.76 in 9 mi West 8.1 mph - -   Haze
12:00 PM 87.8 °F 99.7 °F 77.0 °F 70% 29.74 in 6.2 mi West 8.1 mph - N/A   Mostly Cloudy
1:00 PM 87.8 °F 97.6 °F 75.2 °F 66% 29.71 in 6.2 mi West 8.1 mph - N/A   Mostly Cloudy
2:00 PM 86.0 °F 96.9 °F 77.0 °F 74% 29.71 in 6.2 mi NW 5.8 mph - N/A   Mostly Cloudy
3:00 PM 86 °F - 78 °F 70% 29.69 in 9 mi NW 5.8 mph - -   Haze
3:00 PM 86.0 °F 96.9 °F 77.0 °F 74% 29.68 in 6.2 mi NW 5.8 mph - N/A   Mostly Cloudy
4:00 PM 86.0 °F 96.9 °F 77.0 °F 74% 29.68 in 6.2 mi NW 4.6 mph - N/A   Mostly Cloudy
5:00 PM 84.2 °F 94.1 °F 77.0 °F 79% 29.68 in 6.2 mi NNE 4.6 mph - N/A Thunderstorm Thunderstorm
6:00 PM 83 °F - 76 °F 75% 29.71 in 6 mi North 5.8 mph - - Thunderstorm Thunderstorm
6:00 PM 84.2 °F 94.1 °F 77.0 °F 79% 29.68 in 6.2 mi North 5.8 mph - N/A Thunderstorm Thunderstorm
7:00 PM 82.4 °F 90.9 °F 77.0 °F 84% 29.71 in 6.2 mi Calm Calm - N/A Thunderstorm Thunderstorm
8:00 PM 80.6 °F 87.1 °F 77.0 °F 89% 29.77 in 1.2 mi East 13.8 mph - N/A Rain , Thunderstorm Thunderstorms and Rain